Location: Brienzwiler
(46.7508°N, 8.1014°E)
Time: 08:09:38
(UTC+00:00)

Cosmos-2242 - Pass Details

Date: 05 July 2020
Orbit: 592 x 616 km, 82.5° (Epoch: 05 August)

Event Time Altitude Azimuth Distance (km) Brightness Sun altitude
Rises 20:48:28 0° 348° (NNW) 2,870 7.8 -11.3°
Reaches altitude 10° 20:50:42 10° 345° (NNW) 1,965 6.8 -11.6°
Maximum altitude 20:55:00 65° 264° (W) 675 3.4 -12.0°
Enters shadow 20:59:05 11° 184° (S) 1,880 5.1 -12.4°
